Time,TemperatureF,DewpointF,PressureIn,WindDirection,WindDirectionDegrees,WindSpeedMPH,WindSpeedGustMPH,Humidity,HourlyPrecipIn,Conditions,Clouds,dailyrainin,SoftwareType,DateUTC
2013-04-29 00:00:00,34.0,34.0,-100.00,North,-999,-999.0,-999.0,103,-99.99,,,0.01,,2013-04-29 07:00:00,
2013-04-29 01:00:00,36.0,36.0,-100.00,North,9,2.0,3.0,103,-99.99,,,0.01,,2013-04-29 08:00:00,
2013-04-29 02:00:00,36.0,36.0,-100.00,South,169,3.0,4.0,103,-99.99,,,0.02,,2013-04-29 09:00:00,
2013-04-29 03:00:00,36.0,36.0,-100.00,SSW,201,3.0,5.0,103,-99.99,,,0.02,,2013-04-29 10:00:00,
2013-04-29 04:00:00,34.0,34.0,-100.00,SSE,168,3.0,4.0,103,-99.99,,,0.02,,2013-04-29 11:00:00,
2013-04-29 05:00:00,33.0,33.0,-100.00,SSW,203,3.0,4.0,103,-99.99,,,0.02,,2013-04-29 12:00:00,
2013-04-29 06:00:00,32.0,32.0,-100.00,South,174,2.0,4.0,103,-99.99,,,0.02,,2013-04-29 13:00:00,
2013-04-29 07:00:00,31.0,31.0,-100.00,NNE,20,2.0,4.0,104,-99.99,,,0.02,,2013-04-29 14:00:00,
2013-04-29 08:00:00,31.0,31.0,-100.00,SE,134,2.0,4.0,104,-99.99,,,0.02,,2013-04-29 15:00:00,
2013-04-29 09:00:00,31.0,31.0,-100.00,South,189,3.0,4.0,104,-99.99,,,0.02,,2013-04-29 16:00:00,
2013-04-29 10:00:00,32.0,32.0,-100.00,SW,227,2.0,3.0,103,-99.99,,,0.02,,2013-04-29 17:00:00,
2013-04-29 11:00:00,31.0,31.0,-100.00,SSE,165,2.0,4.0,103,-99.99,,,0.02,,2013-04-29 18:00:00,
2013-04-29 11:52:00,31.0,31.0,-100.00,North,-999,-999.0,-999.0,103,-99.99,,,0.02,,2013-04-29 18:52:00,
2013-04-29 12:00:00,33.0,33.0,-100.00,WNW,293,1.0,3.0,103,-99.99,,,0.02,,2013-04-29 19:00:00,
2013-04-29 12:52:00,33.0,33.0,-100.00,North,-999,-999.0,-999.0,103,-99.99,,,0.02,,2013-04-29 19:52:00,
2013-04-29 13:00:00,33.0,33.0,-100.00,SSW,195,1.0,3.0,102,-99.99,,,0.02,,2013-04-29 20:00:00,
2013-04-29 14:00:00,33.0,33.0,-100.00,South,182,2.0,4.0,101,-99.99,,,0.01,,2013-04-29 21:00:00,
2013-04-29 15:00:00,34.0,34.0,-100.00,SSE,160,2.0,3.0,100,-99.99,,,0.02,,2013-04-29 22:00:00,
2013-04-29 16:00:00,34.0,34.0,-100.00,South,183,2.0,3.0,99,-99.99,,,0.02,,2013-04-29 23:00:00,
2013-04-29 16:42:00,34.0,34.0,-100.00,South,183,2.0,3.0,99,-99.99,,,0.02,,2013-04-29 23:42:00,
2013-04-29 16:52:00,34.0,34.0,-100.00,South,183,2.0,3.0,99,-99.99,,,0.02,,2013-04-29 23:52:00,
2013-04-29 17:00:00,35.0,34.0,-100.00,NE,45,2.0,3.0,98,-99.99,,,0.02,,2013-04-30 00:00:00,
2013-04-29 18:00:00,32.0,32.0,-100.00,SSE,166,2.0,3.0,98,-99.99,,,0.02,,2013-04-30 01:00:00,
2013-04-29 18:42:00,32.0,32.0,-100.00,SSE,166,2.0,3.0,98,-99.99,,,0.02,,2013-04-30 01:42:00,
2013-04-29 18:52:00,32.0,32.0,-100.00,SSE,166,2.0,3.0,98,-99.99,,,0.02,,2013-04-30 01:52:00,
2013-04-29 19:00:00,32.0,31.0,-100.00,SSW,196,2.0,3.0,98,-99.99,,,0.02,,2013-04-30 02:00:00,
2013-04-29 22:00:00,30.0,30.0,-100.00,South,187,2.0,3.0,100,-99.99,,,0.01,,2013-04-30 05:00:00,
2013-04-29 23:00:00,29.0,29.0,-100.00,SSW,194,1.0,3.0,101,-99.99,,,0.01,,2013-04-30 06:00:00,
2013-04-29 23:52:00,29.0,29.0,-100.00,SSW,194,1.0,3.0,101,-99.99,,,0.01,,2013-04-30 06:52:00,